Printer-friendly version
Follow the MPC on Twitter Follow the MPC on Facebook The MPC blog
Minor Planet Center

MPEC 2004-V29 : 2004 VY14

The following Minor Planet Electronic Circular may be linked-to from your own Web pages, but must not otherwise be redistributed electronically.

A form allowing access to any MPEC is at the bottom of this page.


Read MPEC 2004-V28 Read MPEC 2004-V30


M.P.E.C. 2004-V29                                Issued 2004 Nov. 6, 13:20 UT

     The Minor Planet Electronic Circulars contain information on unusual
         minor planets and routine data on comets.  They are published
   on behalf of Commission 20 of the International Astronomical Union by the
          Minor Planet Center, Smithsonian Astrophysical Observatory,
                          Cambridge, MA 02138, U.S.A.

                  Supported in part by the Brinson Foundation
             Prepared using the Tamkin Foundation Computer Network

                              MPC@CFA.HARVARD.EDU
          URL http://cfa-www.harvard.edu/iau/mpc.html  ISSN 1523-6714

                                   2004 VY14

Observations:
     K04V14Y* C2004 11 04.34897 03 19 29.85 +12 55 59.2          18.9 R EV029703
     K04V14Y  C2004 11 04.35944 03 19 28.04 +12 55 59.4          18.9 R EV029703
     K04V14Y  C2004 11 04.36911 03 19 26.51 +12 56 01.2          20.0 R EV029703
     K04V14Y  C2004 11 04.37899 03 19 24.65 +12 56 00.7          20.1 R EV029703
     K04V14Y  C2004 11 04.43809 03 19 14.52 +12 56 01.4          19.4 R EV029703
     K04V14Y  C2004 11 04.44198 03 19 13.76 +12 56 03.4          19.2 R EV029703
     K04V14Y  C2004 11 04.44591 03 19 13.07 +12 56 03.4          19.0 R EV029703
     K04V14Y  C2004 11 05.79631 03 15 32.87 +12 56 46.2          20.5 V EV029A50
     K04V14Y  C2004 11 05.80517 03 15 31.49 +12 56 46.7          20.7 V EV029A50
     K04V14Y  C2004 11 06.34148 03 14 04.63 +12 57 10.7          20.3 R EV029448
     K04V14Y  C2004 11 06.35017 03 14 03.18 +12 57 11.3          20.1 R EV029448
     K04V14Y  C2004 11 06.36029 03 14 01.57 +12 57 11.2          19.9 R EV029448

Observer details:
448 Desert Moon Observatory.  Observer B. L. Stevens.  0.3-m
    Schmidt-Cassegrain + CCD.
703 Catalina Sky Survey.  Observer E. J. Christensen.  Measurers E. C. Beshore,
    C. M. Casey, E. J. Christensen, G. J. Garradd, R. E. Hill, S. M. Larson,
    R. H. McNaught.  0.68-m Schmidt + CCD.
A50 Andrushivka Astronomical Observatory.  Observers Y. Ivashchenko, V. Lokot.
    0.6-m f/1.2 reflector + CCD.

Orbital elements:
2004 VY14                                                            PHA 0.030
Epoch 2004 Oct. 22.0 TT = JDT 2453300.5                 MPC
M  41.12143              (2000.0)            P               Q
n   0.47182101     Peri.  230.67143     +0.41495797     +0.90645876
a   1.6341222      Node    64.01210     -0.80563853     +0.40609648
e   0.5291899      Incl.    5.00194     -0.42279597     +0.11583678
P   2.09           H   20.5           G   0.15
From 12 observations 2004 Nov. 4-6.

Ephemeris:
2004 VY14                a,e,i = 1.63, 0.53, 5                   q = 0.7694
Date    TT    R. A. (2000) Decl.     Delta      r     Elong.  Phase     V
2004 11 01    03 29.17   +12 53.5    0.431    1.412   164.5    10.8    20.1
2004 11 11    03 02.50   +12 59.7    0.502    1.491   175.5     3.0    20.2
2004 11 21    02 43.28   +13 07.3    0.594    1.566   163.3    10.4    21.0
2004 12 01    02 31.59   +13 24.1    0.706    1.639   150.7    17.1    21.7
2004 12 11    02 26.29   +13 51.9    0.835    1.708   139.5    22.0    22.3

Kyle E. Smalley              (C) Copyright 2004 MPC           M.P.E.C. 2004-V29

Read MPEC 2004-V28 Read MPEC 2004-V30


MPEC number:

Enter an MPEC number in one of the following forms:

  • 1997-B01 (the full form)
  • J97B01 (the packed version of the full form)
  • B01 (the abbreviated form)

Valid HTML 4.01!